When you browse on this site, cookies collect data to enhance your experience and personalize the content and advertising you see.
Visit our Privacy Policy to learn more. By continuing to use the site, you agree to this use of cookies and data.
  • In Spain
  • List of Countries
  • For 7 days
  • Water Temperature
  • Satellite Maps
  • Weather Map
  • Weather Widgets
  • user-avatar
    Login

    Hourly Weather Zabid

    Today, 19 June, Wednesday

    Time Temperature Precipitation Wind Pressure Humidity
    00:00 +34°C° 0 mm 4 mps 747 mmHg 66%
    01:00 +34°C° 0 mm 4 mps 746 mmHg 70%
    02:00 +33°C° 0 mm 4 mps 746 mmHg 74%
    03:00 +33°C° 0 mm 4 mps 746 mmHg 77%
    04:00 +33°C° 0 mm 3 mps 746 mmHg 77%
    05:00 +33°C° 0 mm 3 mps 746 mmHg 76%
    06:00 +33°C° 0 mm 3 mps 746 mmHg 76%
    07:00 +34°C° 0 mm 3 mps 746 mmHg 71%
    08:00 +35°C° 0 mm 3 mps 747 mmHg 65%
    09:00 +36°C° 0 mm 3 mps 747 mmHg 60%
    10:00 +37°C° 0 mm 4 mps 747 mmHg 54%
    11:00 +39°C° 0 mm 5 mps 747 mmHg 49%
    12:00 +41°C° 0 mm 6 mps 747 mmHg 43%
    13:00 +41°C° 0 mm 6 mps 746 mmHg 42%
    14:00 +41°C° 0 mm 6 mps 745 mmHg 41%
    15:00 +40°C° 0 mm 6 mps 745 mmHg 40%
    16:00 +39°C° 0 mm 6 mps 745 mmHg 44%
    17:00 +38°C° 0 mm 6 mps 745 mmHg 48%
    18:00 +36°C° 0 mm 5 mps 745 mmHg 52%
    19:00 +36°C° 0 mm 5 mps 746 mmHg 55%
    20:00 +35°C° 0 mm 4 mps 746 mmHg 57%
    21:00 +35°C° 0 mm 3 mps 747 mmHg 59%
    22:00 +35°C° 0 mm 4 mps 747 mmHg 62%
    23:00 +34°C° 0 mm 5 mps 746 mmHg 65%

    Tomorrow, 20 June, Thursday

    Time Temperature Precipitation Wind Pressure Humidity
    00:00 +34°C° 0 mm 5 mps 746 mmHg 67%
    01:00 +34°C° 0 mm 5 mps 746 mmHg 68%
    02:00 +34°C° 0 mm 4 mps 745 mmHg 69%
    03:00 +34°C° 0 mm 4 mps 745 mmHg 69%
    04:00 +33°C° 0 mm 3 mps 745 mmHg 72%
    05:00 +33°C° 0 mm 3 mps 746 mmHg 74%
    06:00 +32°C° 0 mm 2 mps 746 mmHg 77%
    07:00 +34°C° 0 mm 2 mps 746 mmHg 72%
    08:00 +34°C° 0 mm 2 mps 747 mmHg 66%
    09:00 +35°C° 0 mm 2 mps 747 mmHg 61%
    10:00 +37°C° 0 mm 3 mps 747 mmHg 54%
    11:00 +40°C° 0 mm 4 mps 746 mmHg 47%
    12:00 +41°C° 0 mm 5 mps 746 mmHg 39%
    13:00 +42°C° 0 mm 5 mps 745 mmHg 37%
    14:00 +42°C° 0 mm 6 mps 745 mmHg 34%
    15:00 +43°C° 0 mm 7 mps 744 mmHg 32%
    16:00 +41°C° 0 mm 7 mps 745 mmHg 35%
    17:00 +40°C° 0 mm 6 mps 745 mmHg 38%
    18:00 +39°C° 0 mm 5 mps 745 mmHg 41%
    19:00 +37°C° 0 mm 4 mps 745 mmHg 42%
    20:00 +37°C° 0 mm 4 mps 746 mmHg 43%
    21:00 +37°C° 0 mm 3 mps 746 mmHg 44%
    22:00 +36°C° 0 mm 3 mps 746 mmHg 47%
    23:00 +36°C° 0 mm 3 mps 746 mmHg 51%

    Day after tomorrow, 21 June, Friday

    Time Temperature Precipitation Wind Pressure Humidity
    00:00 +35°C° 0 mm 3 mps 746 mmHg 54%
    01:00 +35°C° 0 mm 3 mps 745 mmHg 58%
    02:00 +34°C° 0 mm 3 mps 745 mmHg 62%
    03:00 +33°C° 0 mm 3 mps 744 mmHg 65%
    04:00 +33°C° 0 mm 3 mps 744 mmHg 67%
    05:00 +33°C° 0 mm 3 mps 745 mmHg 69%
    06:00 +33°C° 0 mm 3 mps 745 mmHg 71%
    07:00 +34°C° 0 mm 2 mps 746 mmHg 66%
    08:00 +34°C° 0 mm 1 mps 746 mmHg 61%
    09:00 +35°C° 0 mm 1 mps 746 mmHg 56%
    10:00 +37°C° 0 mm 2 mps 746 mmHg 50%
    11:00 +39°C° 0 mm 3 mps 746 mmHg 44%
    12:00 +41°C° 0 mm 4 mps 746 mmHg 38%
    13:00 +42°C° 0 mm 5 mps 745 mmHg 35%
    14:00 +42°C° 0 mm 5 mps 744 mmHg 32%
    15:00 +44°C° 0 mm 6 mps 744 mmHg 29%
    16:00 +41°C° 0 mm 5 mps 744 mmHg 31%
    17:00 +40°C° 0 mm 4 mps 744 mmHg 34%
    18:00 +38°C° 0 mm 4 mps 744 mmHg 36%
    19:00 +38°C° 0 mm 4 mps 745 mmHg 40%
    20:00 +37°C° 0 mm 4 mps 745 mmHg 43%
    21:00 +36°C° 0 mm 4 mps 745 mmHg 47%
    22:00 +36°C° 0 mm 3 mps 745 mmHg 47%
    23:00 +36°C° 0 mm 3 mps 745 mmHg 48%

    22 June, Saturday

    Time Temperature Precipitation Wind Pressure Humidity
    00:00 +36°C° 0 mm 2 mps 744 mmHg 49%
    01:00 +36°C° 0 mm 2 mps 744 mmHg 52%
    02:00 +35°C° 0 mm 2 mps 744 mmHg 56%
    03:00 +35°C° 0 mm 2 mps 744 mmHg 59%
    04:00 +34°C° 0 mm 2 mps 744 mmHg 63%
    05:00 +34°C° 0 mm 2 mps 744 mmHg 67%
    06:00 +32°C° 0 mm 2 mps 745 mmHg 71%
    07:00 +35°C° 0 mm 2 mps 745 mmHg 63%
    08:00 +36°C° 0 mm 3 mps 746 mmHg 54%
    09:00 +38°C° 0 mm 3 mps 746 mmHg 46%
    10:00 +40°C° 0 mm 4 mps 746 mmHg 42%
    11:00 +41°C° 0 mm 5 mps 745 mmHg 39%
    12:00 +42°C° 0 mm 5 mps 745 mmHg 35%
    13:00 +42°C° 0 mm 5 mps 745 mmHg 34%
    14:00 +42°C° 0 mm 4 mps 744 mmHg 33%
    15:00 +42°C° 0 mm 4 mps 744 mmHg 32%
    16:00 +42°C° 0 mm 3 mps 744 mmHg 32%
    17:00 +42°C° 0 mm 3 mps 744 mmHg 32%
    18:00 +40°C° 0 mm 3 mps 744 mmHg 32%
    19:00 +39°C° 0 mm 2 mps 744 mmHg 36%
    20:00 +39°C° 0 mm 2 mps 745 mmHg 39%
    21:00 +38°C° 0 mm 2 mps 745 mmHg 42%
    22:00 +36°C° 0 mm 1 mps 745 mmHg 44%
    23:00 +36°C° 0 mm 1 mps 745 mmHg 45%

    23 June, Sunday

    Time Temperature Precipitation Wind Pressure Humidity
    00:00 +36°C° 0 mm 1 mps 745 mmHg 46%
    01:00 +35°C° 0 mm 1 mps 744 mmHg 49%
    02:00 +36°C° 0 mm 2 mps 744 mmHg 52%
    03:00 +35°C° 0 mm 2 mps 744 mmHg 55%
    04:00 +34°C° 0 mm 2 mps 744 mmHg 57%
    05:00 +34°C° 0 mm 2 mps 745 mmHg 58%
    06:00 +34°C° 0 mm 2 mps 745 mmHg 60%
    07:00 +35°C° 0 mm 2 mps 745 mmHg 55%
    08:00 +36°C° 0 mm 3 mps 746 mmHg 50%
    09:00 +37°C° 0 mm 3 mps 746 mmHg 45%
    10:00 +38°C° 0 mm 3 mps 746 mmHg 43%
    11:00 +40°C° 0 mm 4 mps 745 mmHg 41%
    12:00 +41°C° 0 mm 4 mps 745 mmHg 39%
    13:00 +41°C° 0 mm 4 mps 745 mmHg 37%
    14:00 +42°C° 0 mm 5 mps 744 mmHg 35%
    15:00 +42°C° 0 mm 5 mps 744 mmHg 32%
    16:00 +42°C° 0 mm 4 mps 744 mmHg 33%
    17:00 +41°C° 0 mm 4 mps 744 mmHg 33%
    18:00 +40°C° 0 mm 4 mps 744 mmHg 33%
    19:00 +39°C° 0 mm 3 mps 745 mmHg 35%
    20:00 +38°C° 0 mm 3 mps 745 mmHg 38%
    21:00 +37°C° 0 mm 2 mps 746 mmHg 40%
    22:00 +37°C° 0 mm 2 mps 746 mmHg 40%
    23:00 +36°C° 0 mm 1 mps 745 mmHg 41%

    24 June, Monday

    Time Temperature Precipitation Wind Pressure Humidity
    00:00 +36°C° 0 mm 1 mps 745 mmHg 41%
    01:00 +35°C° 0 mm 1 mps 745 mmHg 45%
    02:00 +35°C° 0 mm 2 mps 745 mmHg 48%
    03:00 +35°C° 0 mm 2 mps 744 mmHg 52%
    04:00 +34°C° 0 mm 2 mps 745 mmHg 56%
    05:00 +34°C° 0 mm 2 mps 745 mmHg 61%
    06:00 +32°C° 0 mm 2 mps 745 mmHg 65%
    07:00 +34°C° 0 mm 2 mps 746 mmHg 60%
    08:00 +35°C° 0 mm 2 mps 746 mmHg 55%
    09:00 +36°C° 0 mm 2 mps 747 mmHg 50%
    10:00 +38°C° 0 mm 3 mps 746 mmHg 45%
    11:00 +39°C° 0 mm 3 mps 746 mmHg 39%
    12:00 +42°C° 0 mm 3 mps 746 mmHg 34%
    13:00 +42°C° 0 mm 4 mps 745 mmHg 32%
    14:00 +42°C° 0 mm 5 mps 744 mmHg 31%
    15:00 +43°C° 0 mm 5 mps 744 mmHg 30%
    16:00 +42°C° 0 mm 5 mps 744 mmHg 30%
    17:00 +41°C° 0 mm 4 mps 744 mmHg 30%
    18:00 +40°C° 0 mm 3 mps 744 mmHg 30%
    19:00 +39°C° 0 mm 3 mps 745 mmHg 32%
    20:00 +39°C° 0 mm 3 mps 745 mmHg 33%
    21:00 +38°C° 0 mm 2 mps 746 mmHg 34%
    22:00 +37°C° 0 mm 2 mps 746 mmHg 39%
    23:00 +37°C° 0 mm 2 mps 746 mmHg 43%
    Show more